Weather in Matagalpa

Nicaragua     12°55′18″N   85°55′49″W
temp.,
°C
wind,
m/s
gust,
m/s
humid.,
%
clouds,
%
prec.,
mm/h
press.,
hPa
HPBL,
m
6 march, sat
sat600:00+15ene22960 0.0 101437
03:00+14ne22972 0.0 101346
06:00+13ne22961 0.0 101446
09:00+25ene23450 0.0 1015852
12:00+30ene33270 0.0 10121657
15:00+29ne44300 0.0 10081608
18:00+22ne26560 0.0 1010173
21:00+17ne23810 0.0 101484
7 march, sun
sun700:00+16ne24972 0.0 1015184
03:00+17ne299450 0.1 1015554
06:00+16ne289829 0.2 1016400
09:00+23ne512543 0.0 10181339
12:00+27ne611422 0.0 10141717
15:00+27ne611410 0.0 10111844
18:00+22ne411580 0.0 10131270
21:00+20ne413670 0.0 10161049
8 march, mon
mon800:00+18ne413780 0.0 1017832
03:00+16ne313850 0.0 1016696
06:00+17ne313881 0.0 1017921
09:00+22ne6136312 0.0 10181159
12:00+27ne612457 0.0 10151402
15:00+27ne611440 0.0 10121494
18:00+23ne511630 0.0 10141188
21:00+20ne412760 0.0 1017887
9 march, tue
tue900:00+18ne310921 0.1 1017572
03:00+16nne39920 0.0 1015461
06:00+17nne3108915 0.0 1016484
09:00+23ne5116384 0.0 10171130
12:00+28ne6104573 0.0 10141599
15:00+27ne595283 0.2 10121595
18:00+21ne3107488 0.3 1014985
21:00+19ne3118989 0.1 1017865
10 march, wed
wed1000:00+19ne4128565 0.1 1016982
03:00+18ne4128593 0.0 1014802
06:00+17ne3128897 0.0 1015724
09:00+23ne6126085 0.0 10161143
12:00+27ne6104292 0.0 10131592
15:00+27ne51043100 0.0 10101746
18:00+22ne386473 0.0 10121018
21:00+18ne289099 0.1 1016410